Regional Weather Roundup
Issued by NWS Huntsville, AL

Home | Current Version | Previous Version | Text Only | Print | Product List | Glossary On
Versions: 1 2 3 4 5 6 7 8 9 10 11 12 13 14 15 16 17 18 19 20 21 22 23 24 25 26 27
000
ASUS44 KHUN 262310
RWRHUN

WEATHER ROUNDUP FOR THE TENNESSEE VALLEY
NATIONAL WEATHER SERVICE HUNTSVILLE AL
600 PM CDT SUN MAR 26 2017

ALZ001>004-270000-
NORTHWEST ALABAMA

CITY           SKY/WX    TMP DP  RH WIND       PRES   REMARKS
COURTLAND HCN    N/A     72 N/A N/A S10         N/A
RUSSELLVILLE     N/A     72 N/A N/A MISG        N/A
SHOALS AIRPORT SUNNY     74  52  46 SW12      29.97F
SHOALS TVA RES   N/A     73 N/A N/A MISG        N/A
$$

ALZ005>007-016-270000-
NORTH CENTRAL ALABAMA

CITY           SKY/WX    TMP DP  RH WIND       PRES   REMARKS
CULLMAN AG STN   N/A     70 N/A N/A SW10        N/A
DECATUR AP     MOSUNNY   69  58  67 S10       29.99S
HUNTSVILLE AP  MOSUNNY   72  58  61 SW9       29.99S
MERIDIANVILLE  PTSUNNY   68  52  56 SW8       30.01S
REDSTONE ARSN  PTSUNNY   72  57  59 SW13      29.99S
VINEMONT AP    FAIR      71  55  57 S12       30.03S
$$

ALZ008>010-270000-
NORTHEAST ALABAMA

CITY           SKY/WX    TMP DP  RH WIND       PRES   REMARKS
ALBERTVILLE    SUNNY     72  63  73 SW7       30.01S
FORT PAYNE     MOSUNNY   72  50  46 SW15      30.01S
SCOTTSBORO AP  SUNNY     72  55  56 SW9G17    30.02R
SCOTTSBORO HCN   N/A     73 N/A N/A MISG        N/A
VALLEY HEAD      N/A     72 N/A N/A MISG        N/A
$$

TNZ076-096-097-270000-
SOUTHEASTERN MIDDLE TENNESSEE

CITY           SKY/WX    TMP DP  RH WIND       PRES   REMARKS
TULLAHOMA      SUNNY     68  52  56 SW14      30.01S
WINCHESTER     PTSUNNY   70  52  52 SW13      30.01S
$$

...SURROUNDING SITES...

CITY           SKY/WX    TMP DP  RH WIND       PRES   REMARKS
ATLANTA        MOSUNNY   77  53  43 SW13G18   30.04S
ANNISTON       MOSUNNY   75  58  55 SW7       30.01S
BIRMINGHAM     MOSUNNY   76  57  51 S9        30.03S
CHATTANOOGA    MOSUNNY   74  53  48 SW10      30.00R
DALTON         SUNNY     73  55  53 S7        30.02R
GADSDEN        MOSUNNY   75  58  55 SW6       30.01S
GOLDEN TRNGL   MOSUNNY   79  55  44 S12       29.91
HALEYVILLE     FAIR      72  57  59 S8        30.01S
JACKSON TN     PTSUNNY   73  54  51 SW7       29.94R
MEMPHIS        MOSUNNY   73  52  47 W9        29.93S
NASHVILLE      PTSUNNY   72  52  49 SW10      29.96R
OXFORD MS      FAIR      73  50  43 SW9       29.96R
ROME           PTSUNNY   77  56  48 SW6       30.01R
SAVANNAH       MOSUNNY   73  54  49 SW9       29.94S
TUPELO         SUNNY     77  51  40 S10       29.94S
TUSCALOOSA     MOSUNNY   76  60  57 S7        29.98S
$$

...GULF COAST WEATHER...

CITY           SKY/WX    TMP DP  RH WIND       PRES   REMARKS
GULFPORT       MOSUNNY   75  70  84 SE14      30.01S
PASCAGOULA     PTSUNNY   76  66  71 SE10      30.02F
MOBILE         MOSUNNY   76  62  62 S14       30.03S
GULF SHORES    PTCLDY    73  72  99 SE9G16    30.04F
PENSACOLA      MOSUNNY   74  67  78 S10       30.04F
DESTIN         SUNNY     73  71  93 SE7       30.06S
PANAMA CITY    SUNNY     73  65  77 S12       30.07S
APPALACHICOLA  SUNNY     72  68  87 S10       30.09S
$$





USA.gov is the U.S. government's official web portal to all federal, state and local government web resources and services.